HK6REC-20 Weather Reports


Display with metric or nautical units.
time (UTC)temp
F
wind
direction
speed
MPH
gust
MPH
rain 1hr
in
rain 24hr
in
rain mn
in
humidity
%
barometer
mb
20260507175815 77 320 5.0 0.0 0.00 0.00 0.00 67 1011.0
20260507173814 76 320 5.0 0.0 0.00 0.00 0.00 68 1011.0
20260507171813 75 320 5.0 0.0 0.00 0.00 0.00 71 1013.0
20260507165812 75 320 5.0 0.0 0.00 0.00 0.00 70 1013.0
20260507163811 75 320 5.0 0.0 0.00 0.00 0.00 71 1013.0
20260507161810 74 320 5.0 0.0 0.00 0.00 0.00 73 1015.0
20260507155809 74 320 5.0 0.0 0.00 0.00 0.00 73 1014.0
20260507153808 68 120 5.0 0.0 0.00 0.00 0.00 81 1014.0
20260507151807 68 120 5.0 0.0 0.00 0.00 0.00 80 1016.0
20260507145806 68 120 5.0 0.0 0.00 0.00 0.00 79 1016.0
20260507143805 68 120 5.0 0.0 0.00 0.00 0.00 78 1016.0
20260507141804 68 120 5.0 0.0 0.00 0.00 0.00 77 1018.0
20260507135803 68 120 5.0 0.0 0.00 0.00 0.00 77 1016.0
20260507133802 66 120 5.0 0.0 0.00 0.00 0.00 75 1016.0
20260507131801 67 120 5.0 0.0 0.00 0.00 0.00 74 1018.0
20260507125800 68 120 5.0 0.0 0.00 0.00 0.00 73 1016.0
20260507123759 58 310 5.0 0.0 0.00 0.00 0.00 81 1016.0
20260507121758 58 310 5.0 0.0 0.00 0.00 0.00 81 1016.0
20260507115757 58 310 5.0 0.0 0.00 0.00 0.00 81 1016.0
20260507113756 58 310 5.0 0.0 0.00 0.00 0.00 81 1016.0
20260507111755 58 310 5.0 0.0 0.00 0.00 0.00 81 1017.0
20260507105754 58 310 5.0 0.0 0.00 0.00 0.00 81 1016.0
20260507103753 58 310 5.0 0.0 0.00 0.00 0.00 81 1016.0
20260507101752 58 310 5.0 0.0 0.00 0.00 0.00 80 1017.0
20260507095751 58 310 5.0 0.0 0.00 0.00 0.00 80 1015.0
20260507093750 58 310 5.0 0.0 0.00 0.00 0.00 80 1016.0
20260507091750 58 310 5.0 0.0 0.00 0.00 0.00 80 1016.0
20260507085749 59 310 5.0 0.0 0.00 0.00 0.00 80 1015.0
20260507083748 59 310 5.0 0.0 0.00 0.00 0.00 80 1015.0
20260507081747 59 310 5.0 0.0 0.00 0.00 0.00 80 1016.0
20260507075746 59 310 5.0 0.0 0.00 0.00 0.00 80 1015.0
20260507073745 59 310 5.0 0.0 0.00 0.00 0.00 80 1015.0
20260507071744 59 310 5.0 0.0 0.00 0.00 0.00 80 1016.0
20260507065743 59 310 5.0 0.0 0.00 0.00 0.00 80 1015.0
20260507063742 59 310 5.0 0.0 0.00 0.00 0.00 80 1016.0
20260507061741 59 310 5.0 0.0 0.00 0.00 0.00 79 1017.0
20260507055740 59 310 5.0 0.0 0.00 0.00 0.00 79 1016.0
20260507053739 59 310 5.0 0.0 0.00 0.00 0.00 79 1016.0
20260507051739 59 310 5.0 0.0 0.00 0.00 0.00 79 1017.0
20260507045738 59 310 5.0 0.0 0.00 0.00 0.00 79 1017.0
20260507043736 60 310 5.0 0.0 0.00 0.00 0.00 79 1017.0
20260507041736 60 310 5.0 0.0 0.00 0.00 0.00 79 1017.0
20260507035735 60 310 5.0 0.0 0.00 0.00 0.00 79 1017.0
20260507033733 60 310 5.0 0.0 0.00 0.00 0.00 79 1016.0
20260507031733 61 310 5.0 0.0 0.00 0.00 0.00 79 1016.0
20260507025732 61 310 5.0 0.0 0.00 0.00 0.00 79 1016.0
20260507023731 62 310 5.0 0.0 0.00 0.00 0.00 79 1016.0
20260507021730 63 310 5.0 0.0 0.00 0.00 0.00 79 1015.0
20260507015729 63 310 5.0 0.0 0.00 0.00 0.00 79 1015.0
20260507013728 64 310 5.0 0.0 0.00 0.00 0.00 79 1015.0
20260507011727 65 310 5.0 0.0 0.00 0.00 0.00 79 1014.0
20260507005726 66 310 5.0 0.0 0.00 0.00 0.00 79 1014.0
20260507003725 67 310 5.0 0.0 0.00 0.00 0.00 79 1014.0
20260507001724 68 310 5.0 0.0 0.00 0.00 0.00 79 1014.0
20260506235723 70 310 5.0 0.0 0.00 0.00 0.00 79 1013.0
20260506233722 70 310 5.0 0.0 0.00 0.00 0.00 79 1013.0
20260506231721 70 310 5.0 0.0 0.00 0.00 0.00 79 1012.0
20260506225720 70 310 5.0 0.0 0.00 0.00 0.00 79 1012.0
20260506223719 70 310 5.0 0.0 0.00 0.00 0.00 79 1012.0
20260506221718 71 310 5.0 0.0 0.00 0.00 0.00 78 1010.0
20260506215717 72 310 5.0 0.0 0.00 0.00 0.00 77 1010.0
20260506213716 72 310 5.0 0.0 0.00 0.00 0.00 76 1010.0
20260506211715 73 310 5.0 0.0 0.00 0.00 0.00 75 1010.0
20260506205715 74 310 5.0 0.0 0.00 0.00 0.00 74 1009.0
20260506203714 75 310 5.0 0.0 0.00 0.00 0.00 72 1009.0
20260506201712 76 310 5.0 0.0 0.00 0.00 0.00 70 1010.0
20260506195712 77 310 5.0 0.0 0.00 0.00 0.00 67 1009.0
20260506193711 78 310 5.0 0.0 0.00 0.00 0.00 63 1009.0
20260506191710 78 310 5.0 0.0 0.00 0.00 0.00 63 1010.0
20260506185709 78 310 5.0 0.0 0.00 0.00 0.00 63 1010.0
20260506183708 78 310 5.0 0.0 0.00 0.00 0.00 64 1010.0
20260506181707 78 310 5.0 0.0 0.00 0.00 0.00 67 1012.0